Reflectivity
-20 -20 -20 -20 -20 -20 -20 -20 -16 2 18 7 13 -10 -18 2 -3 3 6 -14 -20 -20 9 -3 2 -9 1
-20 -20 -20 -20 -20 -20 -20 -20 -20 3 -2 19 -20 -0 6 4 6 6 -18 -20 -20 -19 -19 -20 -20 -20 -11
-20 -20 -20 -20 -20 -20 -20 -20 -12 -5 1 21 9 8 15 2 6 3 5 -20 -20 -20 -20 -20 -20 -20 -20
-20 -20 -10 -10 -20 -13 -20 -15 5 11 18 12 16 16 -0 -2 -17 -19 -20 -20 -20 -20 -20 -20 -20 -20 -20
-20 -18 -11 -9 -8 -19 -10 -3 2 5 1 3 16 -9 -18 -18 -15 -20 -20 -20 -20 -20 -20 -20 -20 -20 -20
-20 -20 -20 -20 -19 5 23 8 -9 -8 -15 -19 -13 -20 -20 -20 -13 -20 -20 -20 -20 -20 -20 -20 -20 -20 -20
-19 -20 -18 -7 -6 -17 -19 -16 -20 -20 -20 -20 -20 -20 -20 -20 6 10 -20 -20 -20 -20 -20 -20 -20 -20 -20
-20 -20 -20 -20 -20 -20 -20 -20 -20 -20 -20 -20 -20 -20 -20 -20 -12 1 -20 -20 -20 -20 -20 -20 -20 -20 -20
-20 -20 -20 -20 -20 -20 -20 -20 -20 -20 -20 -20 -20 -20 -20 -20 -20 -20 -20 -20 -20 -20 -20 -20 -20 -20 -20
-20 -20 -20 -20 -20 -20 -20 -20 -20 -20 -20 -20 -20 -20 -20 -20 -20 -20 -20 -20 -20 -20 -20 -20 -20 -20 -20
-20 -20 -20 -20 -20 -20 -20 -20 -20 -20 -20 -20 -20 -20 -20 -20 -20 -20 -20 -20 -20 -20 -20 -20 -20 -20 -20
-20 -20 -20 -20 -20 -20 -20 -20 -20 -20 -20 -20 -20 -20 -20 -20 -20 -20 -20 -20 -20 -20 -20 -20 -20 -20 -20
-20 -20 -20 -20 -20 -20 -20 -20 -20 -20 -20 -20 -20 -20 -20 -20 -20 -20 -20 -20 -20 -20 -20 -20 -20 -20 -20
-20 -20 -20 -20 -20 -20 -20 -20 -20 -20 -20 -20 -20 -20 -20 -20 -20 -20 -20 -20 -20 -20 -20 -20 -20 -20 -20
-20 -20 -20 -20 -20 -20 -20 -20 -20 -20 -20 -20 -20 -20 -20 -20 -20 -20 -20 -20 -20 -20 -20 -20 -20 -20 -20
-20 -20 -20 -20 -20 -20 -20 -20 -20 -20 -20 -20 -20 -20 -20 -20 -20 -20 -20 -20 -20 -20 -20 -20 -20 -20 -20
-20 -20 -20 -20 -20 -20 -20 -20 -20 -20 -20 -20 -20 -20 -20 -20 -20 -20 -20 -20 -20 -20 -20 -20 -20 -20 -20
Wind_Speed
2 2 3 4 3 4 4 5 5 11 7 9 13 12 11 9 10 10 10 12 14 13 11 13 14 15 16
1 2 2 3 3 4 3 4 4 11 12 13 14 12 11 11 9 8 12 12 13 12 11 12 14 14 14
2 2 2 2 3 3 3 3 4 9 12 12 12 11 9 9 9 11 12 11 13 11 10 12 13 14 13
2 2 2 2 2 2 2 2 3 3 8 9 8 8 8 9 10 10 11 12 12 9 10 12 13 14 14
2 2 2 2 2 1 2 2 2 3 2 3 3 3 4 6 8 10 11 9 8 10 11 12 12 12 14
2 2 2 2 2 2 2 2 2 3 2 2 3 2 3 3 6 8 9 6 8 9 10 11 11 11 11
4 2 3 2 3 2 2 2 2 3 1 1 3 1 3 4 4 7 5 4 6 8 8 9 10 11 11
6 4 3 4 3 2 3 4 2 1 2 2 2 1 3 3 6 3 5 6 6 8 9 10 11 11 12
15 14 11 9 7 3 2 3 1 2 4 2 1 1 2 2 4 8 7 7 8 10 11 12 12 12 7
4 8 9 9 11 5 3 2 2 2 2 2 2 2 2 1 2 3 3 8 8 12 13 13 13 3 3
4 4 5 5 5 5 4 3 3 2 2 3 1 1 2 1 1 2 3 3 3 5 12 13 13 8 3
3 3 3 3 3 4 6 7 6 5 2 2 3 2 2 2 1 3 2 2 3 4 4 8 10 10 9
3 2 2 3 4 3 5 6 5 4 4 3 2 2 3 2 1 1 2 2 2 2 4 4 3 3 4
3 3 3 2 2 1 2 2 2 2 3 5 4 3 2 0 2 1 1 1 3 3 3 3 3 2 2
3 3 2 2 2 1 2 2 3 1 3 3 4 3 1 4 2 1 2 2 2 3 3 3 3 4 3
2 2 3 2 2 1 2 3 2 1 1 3 3 3 4 2 2 0 1 1 2 3 2 2 4 2 3
2 3 3 2 4 2 2 2 1 1 1 2 3 3 3 2 3 2 2 2 2 3 2 2 3 7 5
Wind_Direction
124 141 110 110 82 59 49 40 16 28 101 116 104 91 82 73 66 65 63 59 51 41 29 30 29 26 25
143 127 97 76 84 73 44 47 28 29 71 94 97 90 87 82 74 78 81 69 61 46 37 30 28 24 24
154 102 104 131 81 61 48 51 40 34 52 70 87 88 90 88 85 81 78 71 67 49 37 33 27 22 17
190 112 108 88 99 138 105 49 41 27 51 64 65 74 89 94 95 85 74 61 50 38 31 29 24 18 11
162 118 124 134 179 143 107 119 65 5 70 43 37 44 35 71 85 78 71 52 39 31 23 20 16 13 8
145 142 143 132 133 138 119 148 151 29 18 74 14 27 359 13 66 79 63 35 30 25 19 13 6 3 5
151 127 131 136 129 123 105 90 91 321 54 40 357 42 354 353 31 76 71 43 37 30 16 9 2 357 355
86 105 106 121 112 133 128 115 93 39 11 115 337 18 346 4 17 86 51 57 47 28 15 4 356 355 354
84 82 100 100 115 97 78 95 81 49 14 74 8 352 26 29 11 47 54 47 49 23 9 358 351 357 348
56 59 58 61 60 55 123 119 117 54 356 87 8 24 46 39 39 29 25 44 42 23 9 359 352 2 344
89 73 62 56 47 44 40 99 116 91 322 94 38 26 87 296 353 26 29 17 20 358 358 350 349 349 323
98 81 78 73 62 58 58 63 60 97 53 103 144 132 126 5 22 345 15 31 21 340 334 333 340 348 344
118 109 104 127 115 79 71 71 62 55 58 38 119 125 109 153 195 321 12 329 352 317 313 321 316 331 335
124 115 121 109 109 104 86 57 68 355 28 37 40 109 106 141 117 313 331 341 325 325 295 288 303 303 297
132 136 128 117 95 71 87 63 85 24 339 344 16 43 87 149 79 227 284 319 296 297 345 310 301 316 311
121 135 135 130 112 68 80 86 111 45 19 337 353 25 11 345 189 259 336 271 300 313 293 307 306 296 295
141 143 130 131 126 96 90 95 72 82 28 16 37 81 62 6 293 284 174 274 311 313 260 212 253 293 299